Location: Zagreb
(45.8000°N, 16.0000°E)
Time: 23:20:19
(UTC+02:00)

Envisat - Pass Details

Date: 26 April 2024
Orbit: 762 x 764 km, 98.3° (Epoch: 27 May)

Event Time Altitude Azimuth Distance (km) Brightness Sun altitude
Rises 03:50:42 0° 19° (NNE) 3,239 7.4 -18.5°
Reaches altitude 10° 03:53:07 10° 26° (NNE) 2,308 6.5 -18.2°
Maximum altitude 03:57:59 45° 98° (E) 1,034 3.9 -17.5°
Drops below altitude 10° 04:02:49 10° 171° (S) 2,290 5.1 -16.9°
Enters shadow 04:02:59 - 172° (S) 2,354 5.2 -16.9°
